STARLINK-11728, 64323

Orbit data source: Space-Track

STARLINK-11728, 64323 is a payload satellite owned by SpaceX/Seattle (US) in LEO that was launched on Tue, 10 Jun 2025 UTC via an FALCON 9 launch vehicle from the Air Force Eastern Test Range (AFETR). Payload-class satellites include a variety of spacecraft equipped with specific instruments for various scientific and technological missions. These include communications satellites like Starlink; space stations such as the ISS; scientific satellites like the Hubble; Earth observation satellites from companies like Planet Labs, Umbra, and HawkEye 360; GPS; miniature CubeSats for education and research; and military/defense satellites.

Loading next visibility...
Identifier
64323, 2025-124G
Orbit
LEO
Last TLE update
3 hours ago
Origin
Manufacturer
SpaceX/Seattle
Mission
Operational spacecraft
Bus & Motor
STARLINK V2M, Unknown motor
Mass
730 kg wet, ~700 kg dry
Launch date (UTC)
2025-06-10 (1 month ago)
Launch vehicle
FALCON 9
Launch site
Air Force Eastern Test Range (AFETR)
Object type
Payload
Rocket body
Debris
Shape & HBR
Unknown
Radar Cross Section
Large (>1 m²)

Expand to show TLE details & history

TLE from 3 hours ago
0 STARLINK-11728
1 64323U 25124G   25200.25001157 -.00102497  00000-0 -80398-3 0  9998
2 64323  42.9997 355.9524 0001787 264.9989 127.4633 15.70873362  7053
Epoch: 2025-07-19T06:00Z
TLE epoch observation values (Epoch: 2025-07-19T06:00:00.999Z)
Latitude
21.55459°
Longitude
-6.42973°
Altitude
356.602 km
Speed
7.699 km/s
True Right ascension
01h 23m 27s
True Declination
21° 25' 49"
Sunlit
Object was in daylight at epoch
Visualization orbit readout
Latitude
38.88189°
Longitude
88.50127°
Altitude
359.753 km
Speed
7.698 km/s
Apparent Right ascension
08h 55m 22s
Apparent Declination
0° 49' 01"
Sunlit
Object is in daylight
Visualization observer readout
Local Sidereal Time
22:12:58
Azimuth
28.327° NE
Elevation
-45.579°
Doppler factor
1
Orbital elements
Apogee altitude
359.585 km
Perigee altitude
357.178 km
Semi-major axis
6,736.518 km
Eccentricity
0.00018
Inclination
42.9997°
RAAN
355.9524°
Arg. of periapsis
264.9989°
True anomaly
127.47955°
Mean anomaly
127.4633°
Eccentric anomaly
127.47143°
Mean motion
3.92545 °/min
Orbital period
91.71 mins
BSTAR
-0.00080398
Loading maneuver chart data...
Loading SW <> Apogee altitude chart data...
Loading historical data...
Loading historical data...
Loading historical data...
Loading historical data...
Loading historical data...
Loading historical data...
Loading historical data...
|